| time (UTC) | temp C | wind direction | speed KPH | gust KPH | rain 1hr cm | rain 24hr cm | rain mn cm | humidity % | barometer mb |
| 20260504182503 | 21 | 2 | 9.7 | 14.5 | 0.00 | 0.00 | 0.00 | 32 | 1011.9 |
| 20260504182004 | 21 | 2 | 9.7 | 14.5 | 0.00 | 0.00 | 0.00 | 33 | 1012.1 |
| 20260504181504 | 21 | 2 | 9.7 | 12.9 | 0.00 | 0.00 | 0.00 | 32 | 1012.1 |
| 20260504181003 | 21 | 1 | 12.9 | 16.1 | 0.00 | 0.00 | 0.00 | 34 | 1012.1 |
| 20260504180504 | 21 | 1 | 11.3 | 16.1 | 0.00 | 0.00 | 0.00 | 34 | 1012.2 |
| 20260504180004 | 21 | 1 | 9.7 | 16.1 | 0.00 | 0.00 | 0.00 | 34 | 1012.4 |
| 20260504175503 | 21 | 1 | 8.0 | 9.7 | 0.00 | 0.00 | 0.00 | 33 | 1012.4 |
| 20260504175003 | 21 | 2 | 9.7 | 14.5 | 0.00 | 0.00 | 0.00 | 33 | 1012.4 |
| 20260504174505 | 20 | 1 | 11.3 | 20.9 | 0.00 | 0.00 | 0.00 | 33 | 1012.5 |
| 20260504174004 | 20 | 2 | 12.9 | 20.9 | 0.00 | 0.00 | 0.00 | 33 | 1012.6 |
| 20260504173504 | 20 | 1 | 11.3 | 16.1 | 0.00 | 0.00 | 0.00 | 32 | 1012.7 |
| 20260504173004 | 21 | 2 | 12.9 | 20.9 | 0.00 | 0.00 | 0.00 | 34 | 1012.7 |
| 20260504172503 | 20 | 2 | 14.5 | 20.9 | 0.00 | 0.00 | 0.00 | 35 | 1012.8 |
| 20260504172004 | 20 | 2 | 11.3 | 16.1 | 0.00 | 0.00 | 0.00 | 33 | 1012.8 |
| 20260504171003 | 20 | 2 | 8.0 | 20.9 | 0.00 | 0.00 | 0.00 | 33 | 1012.9 |
| 20260504150503 | 17 | 1 | 4.8 | 9.7 | 0.00 | 0.00 | 0.00 | 42 | 1014.4 |
| 20260504141003 | 15 | 2 | 8.0 | 14.5 | 0.00 | 0.00 | 0.00 | 52 | 1014.5 |
| 20260504140504 | 15 | 2 | 6.4 | 14.5 | 0.00 | 0.00 | 0.00 | 53 | 1014.6 |
| 20260504130504 | 13 | 2 | 8.0 | 9.7 | 0.00 | 0.00 | 0.00 | 63 | 1014.9 |
| 20260504110503 | 9 | 2 | 6.4 | 14.5 | 0.00 | 0.00 | 0.00 | 76 | 1015.6 |
| 20260504100503 | 8 | 2 | 4.8 | 6.4 | 0.00 | 0.00 | 0.00 | 72 | 1015.5 |
| 20260504082003 | 9 | 1 | 6.4 | 8.0 | 0.00 | 0.00 | 0.00 | 57 | 1015.3 |
| 20260504081504 | 9 | 1 | 8.0 | 8.0 | 0.00 | 0.00 | 0.00 | 56 | 1015.4 |
| 20260504081003 | 9 | 2 | 8.0 | 11.3 | 0.00 | 0.00 | 0.00 | 55 | 1015.3 |
| 20260504050504 | 10 | 1 | 3.2 | 4.8 | 0.00 | 0.00 | 0.00 | 47 | 1015.1 |
| 20260504050003 | 10 | 1 | 3.2 | 4.8 | 0.00 | 0.00 | 0.00 | 47 | 1015.0 |
| 20260504045504 | 10 | 1 | 4.8 | 6.4 | 0.00 | 0.00 | 0.00 | 47 | 1015.0 |
| 20260504045003 | 10 | 1 | 4.8 | 6.4 | 0.00 | 0.00 | 0.00 | 46 | 1015.0 |
| 20260504044504 | 10 | 2 | 6.4 | 8.0 | 0.00 | 0.00 | 0.00 | 46 | 1015.0 |
| 20260504044003 | 10 | 1 | 6.4 | 8.0 | 0.00 | 0.00 | 0.00 | 46 | 1015.0 |
| 20260504043504 | 10 | 2 | 6.4 | 8.0 | 0.00 | 0.00 | 0.00 | 46 | 1015.0 |
| 20260504043004 | 10 | 1 | 4.8 | 8.0 | 0.00 | 0.00 | 0.00 | 45 | 1014.9 |
| 20260504042503 | 10 | 2 | 6.4 | 8.0 | 0.00 | 0.00 | 0.00 | 45 | 1014.8 |
| 20260504042003 | 10 | 1 | 6.4 | 9.7 | 0.00 | 0.00 | 0.00 | 45 | 1014.7 |
| 20260504041004 | 10 | 1 | 4.8 | 9.7 | 0.00 | 0.00 | 0.00 | 45 | 1014.6 |
| 20260504040503 | 10 | 1 | 6.4 | 9.7 | 0.00 | 0.00 | 0.00 | 45 | 1014.6 |
| 20260504040004 | 10 | 1 | 6.4 | 9.7 | 0.00 | 0.00 | 0.00 | 45 | 1014.7 |
| 20260504035004 | 11 | 1 | 4.8 | 6.4 | 0.00 | 0.00 | 0.00 | 45 | 1014.6 |
| 20260504034503 | 11 | 1 | 6.4 | 6.4 | 0.00 | 0.00 | 0.00 | 44 | 1014.5 |
| 20260504034003 | 11 | 2 | 6.4 | 8.0 | 0.00 | 0.00 | 0.00 | 44 | 1014.5 |
| 20260504033503 | 11 | 2 | 6.4 | 9.7 | 0.00 | 0.00 | 0.00 | 43 | 1014.4 |
| 20260504033003 | 11 | 1 | 6.4 | 11.3 | 0.00 | 0.00 | 0.00 | 44 | 1014.5 |
| 20260504032004 | 11 | 1 | 8.0 | 11.3 | 0.00 | 0.00 | 0.00 | 44 | 1014.5 |
| 20260504031503 | 11 | 2 | 8.0 | 20.9 | 0.00 | 0.00 | 0.00 | 43 | 1014.4 |
| 20260504031003 | 11 | 2 | 8.0 | 20.9 | 0.00 | 0.00 | 0.00 | 43 | 1014.4 |
| 20260504030503 | 11 | 1 | 6.4 | 11.3 | 0.00 | 0.00 | 0.00 | 43 | 1014.4 |
| 20260504030004 | 11 | 2 | 6.4 | 8.0 | 0.00 | 0.00 | 0.00 | 44 | 1014.3 |
| 20260504024504 | 11 | 1 | 6.4 | 12.9 | 0.00 | 0.00 | 0.00 | 43 | 1014.5 |
| 20260504024003 | 11 | 2 | 6.4 | 12.9 | 0.00 | 0.00 | 0.00 | 43 | 1014.5 |
| 20260504023504 | 11 | 2 | 6.4 | 11.3 | 0.00 | 0.00 | 0.00 | 42 | 1014.4 |
| 20260504023003 | 11 | 2 | 6.4 | 11.3 | 0.00 | 0.00 | 0.00 | 42 | 1014.4 |
| 20260504022503 | 11 | 1 | 6.4 | 11.3 | 0.00 | 0.00 | 0.00 | 42 | 1014.5 |
| 20260504022004 | 11 | 1 | 6.4 | 11.3 | 0.00 | 0.00 | 0.00 | 42 | 1014.5 |
| 20260504021503 | 11 | 1 | 6.4 | 11.3 | 0.00 | 0.00 | 0.00 | 42 | 1014.4 |
| 20260504021004 | 11 | 1 | 6.4 | 6.4 | 0.00 | 0.00 | 0.00 | 42 | 1014.4 |
| 20260504020503 | 11 | 1 | 6.4 | 8.0 | 0.00 | 0.00 | 0.00 | 42 | 1014.4 |
| 20260504020004 | 11 | 1 | 6.4 | 8.0 | 0.00 | 0.00 | 0.00 | 42 | 1014.3 |
| 20260504015503 | 11 | 1 | 4.8 | 8.0 | 0.00 | 0.00 | 0.00 | 42 | 1014.4 |
| 20260504015004 | 11 | 2 | 4.8 | 6.4 | 0.00 | 0.00 | 0.00 | 42 | 1014.4 |
| 20260504014503 | 12 | 2 | 6.4 | 8.0 | 0.00 | 0.00 | 0.00 | 41 | 1014.3 |
| 20260504014003 | 12 | 2 | 4.8 | 8.0 | 0.00 | 0.00 | 0.00 | 41 | 1014.2 |
| 20260504013503 | 12 | 1 | 4.8 | 8.0 | 0.00 | 0.00 | 0.00 | 41 | 1014.2 |
| 20260504013004 | 12 | 1 | 4.8 | 6.4 | 0.00 | 0.00 | 0.00 | 41 | 1014.2 |
| 20260504012503 | 12 | 2 | 4.8 | 6.4 | 0.00 | 0.00 | 0.00 | 41 | 1014.2 |
| 20260504011503 | 12 | 1 | 4.8 | 4.8 | 0.00 | 0.00 | 0.00 | 40 | 1014.0 |
| 20260504010003 | 12 | 1 | 3.2 | 4.8 | 0.00 | 0.00 | 0.00 | 40 | 1013.8 |
| 20260504005504 | 12 | 1 | 4.8 | 6.4 | 0.00 | 0.00 | 0.00 | 39 | 1013.7 |
| 20260504005004 | 12 | 1 | 4.8 | 6.4 | 0.00 | 0.00 | 0.00 | 39 | 1013.7 |
| 20260504004503 | 12 | 1 | 4.8 | 4.8 | 0.00 | 0.00 | 0.00 | 39 | 1013.7 |
| 20260504003503 | 12 | 1 | 4.8 | 6.4 | 0.00 | 0.00 | 0.00 | 38 | 1013.5 |
| 20260504003004 | 13 | 1 | 4.8 | 8.0 | 0.00 | 0.00 | 0.00 | 38 | 1013.4 |
| 20260504002504 | 13 | 2 | 4.8 | 8.0 | 0.00 | 0.00 | 0.00 | 37 | 1013.4 |
| 20260504001504 | 13 | 1 | 4.8 | 8.0 | 0.00 | 0.00 | 0.00 | 36 | 1013.3 |
| 20260504001003 | 13 | 2 | 4.8 | 8.0 | 0.00 | 0.00 | 0.00 | 36 | 1013.3 |
| 20260504000504 | 13 | 1 | 4.8 | 6.4 | 0.00 | 0.00 | 0.00 | 36 | 1013.2 |
| 20260504000005 | 13 | 1 | 6.4 | 8.0 | 0.00 | 0.00 | 0.00 | 35 | 1013.2 |
| 20260503235503 | 13 | 2 | 4.8 | 8.0 | 0.00 | 0.00 | 0.00 | 34 | 1013.1 |
| 20260503235003 | 14 | 1 | 6.4 | 11.3 | 0.00 | 0.00 | 0.00 | 34 | 1013.1 |
| 20260503234503 | 14 | 2 | 8.0 | 11.3 | 0.00 | 0.00 | 0.00 | 34 | 1013.1 |
| 20260503234003 | 14 | 2 | 9.7 | 25.7 | 0.00 | 0.00 | 0.00 | 33 | 1013.0 |
| 20260503233503 | 14 | 2 | 9.7 | 25.7 | 0.00 | 0.00 | 0.00 | 32 | 1013.0 |
| 20260503233003 | 14 | 2 | 8.0 | 14.5 | 0.00 | 0.00 | 0.00 | 33 | 1012.9 |
| 20260503232503 | 14 | 1 | 9.7 | 14.5 | 0.00 | 0.00 | 0.00 | 33 | 1012.9 |
| 20260503232005 | 14 | 2 | 11.3 | 11.3 | 0.00 | 0.00 | 0.00 | 32 | 1012.8 |
| 20260503231503 | 15 | 1 | 9.7 | 14.5 | 0.00 | 0.00 | 0.00 | 32 | 1012.9 |
| 20260503230503 | 15 | 2 | 11.3 | 12.9 | 0.00 | 0.00 | 0.00 | 32 | 1012.9 |
| 20260503230004 | 15 | 1 | 11.3 | 12.9 | 0.00 | 0.00 | 0.00 | 31 | 1012.8 |
| 20260503225504 | 15 | 2 | 8.0 | 11.3 | 0.00 | 0.00 | 0.00 | 32 | 1012.7 |
| 20260503225003 | 15 | 2 | 9.7 | 17.7 | 0.00 | 0.00 | 0.00 | 31 | 1012.7 |
| 20260503224503 | 15 | 1 | 12.9 | 20.9 | 0.00 | 0.00 | 0.00 | 31 | 1012.7 |
| 20260503224003 | 15 | 1 | 12.9 | 22.5 | 0.00 | 0.00 | 0.00 | 30 | 1012.7 |
| 20260503223503 | 15 | 1 | 11.3 | 22.5 | 0.00 | 0.00 | 0.00 | 30 | 1012.7 |
| 20260503223003 | 15 | 1 | 9.7 | 12.9 | 0.00 | 0.00 | 0.00 | 30 | 1012.6 |
| 20260503222503 | 15 | 2 | 11.3 | 17.7 | 0.00 | 0.00 | 0.00 | 29 | 1012.7 |
| 20260503222003 | 15 | 1 | 11.3 | 17.7 | 0.00 | 0.00 | 0.00 | 30 | 1012.7 |
| 20260503221503 | 15 | 2 | 11.3 | 17.7 | 0.00 | 0.00 | 0.00 | 30 | 1012.6 |
| 20260503221003 | 15 | 1 | 14.5 | 25.7 | 0.00 | 0.00 | 0.00 | 30 | 1012.6 |
| 20260503215503 | 15 | 2 | 12.9 | 22.5 | 0.00 | 0.00 | 0.00 | 29 | 1012.6 |
| 20260503215004 | 15 | 1 | 14.5 | 19.3 | 0.00 | 0.00 | 0.00 | 30 | 1012.7 |
| 20260503214504 | 15 | 1 | 14.5 | 19.3 | 0.00 | 0.00 | 0.00 | 29 | 1012.5 |
| 20260503214003 | 15 | 1 | 14.5 | 19.3 | 0.00 | 0.00 | 0.00 | 29 | 1012.6 |
| 20260503213003 | 15 | 1 | 14.5 | 29.0 | 0.00 | 0.00 | 0.00 | 29 | 1012.5 |
| 20260503212503 | 15 | 1 | 12.9 | 29.0 | 0.00 | 0.00 | 0.00 | 28 | 1012.5 |
| 20260503212004 | 15 | 1 | 12.9 | 22.5 | 0.00 | 0.00 | 0.00 | 29 | 1012.5 |
| 20260503211503 | 15 | 2 | 14.5 | 25.7 | 0.00 | 0.00 | 0.00 | 29 | 1012.5 |
| 20260503211003 | 15 | 1 | 16.1 | 25.7 | 0.00 | 0.00 | 0.00 | 30 | 1012.6 |
| 20260503210503 | 15 | 1 | 17.7 | 30.6 | 0.00 | 0.00 | 0.00 | 29 | 1012.6 |
| 20260503210004 | 15 | 1 | 16.1 | 30.6 | 0.00 | 0.00 | 0.00 | 30 | 1012.6 |
| 20260503204504 | 15 | 2 | 12.9 | 20.9 | 0.00 | 0.00 | 0.00 | 32 | 1012.8 |
| 20260503204003 | 14 | 1 | 14.5 | 20.9 | 0.00 | 0.00 | 0.00 | 31 | 1012.8 |
| 20260503203504 | 14 | 2 | 14.5 | 20.9 | 0.00 | 0.00 | 0.00 | 31 | 1012.9 |
| 20260503202503 | 14 | 2 | 14.5 | 24.1 | 0.00 | 0.00 | 0.00 | 31 | 1012.8 |
| 20260503202003 | 13 | 1 | 14.5 | 25.7 | 0.00 | 0.00 | 0.00 | 32 | 1012.8 |
| 20260503201503 | 14 | 2 | 14.5 | 25.7 | 0.00 | 0.00 | 0.00 | 30 | 1012.9 |
| 20260503200503 | 13 | 2 | 12.9 | 24.1 | 0.00 | 0.00 | 0.00 | 31 | 1012.9 |
| 20260503200004 | 14 | 2 | 12.9 | 24.1 | 0.00 | 0.00 | 0.00 | 31 | 1012.9 |
| 20260503195504 | 14 | 1 | 16.1 | 24.1 | 0.00 | 0.00 | 0.00 | 31 | 1012.9 |
| 20260503195003 | 14 | 1 | 16.1 | 17.7 | 0.00 | 0.00 | 0.00 | 31 | 1013.0 |
| 20260503194004 | 15 | 1 | 12.9 | 22.5 | 0.00 | 0.00 | 0.00 | 32 | 1013.1 |
| 20260503193503 | 14 | 2 | 16.1 | 22.5 | 0.00 | 0.00 | 0.00 | 31 | 1013.0 |
| 20260503193004 | 13 | 1 | 17.7 | 19.3 | 0.00 | 0.00 | 0.00 | 31 | 1013.2 |
| 20260503192504 | 13 | 1 | 17.7 | 22.5 | 0.00 | 0.00 | 0.00 | 32 | 1013.2 |
| 20260503192003 | 14 | 2 | 16.1 | 22.5 | 0.00 | 0.00 | 0.00 | 30 | 1013.3 |
| 20260503191004 | 14 | 1 | 16.1 | 19.3 | 0.00 | 0.00 | 0.00 | 32 | 1013.2 |
| 20260503190004 | 13 | 2 | 12.9 | 22.5 | 0.00 | 0.00 | 0.00 | 32 | 1013.3 |
| 20260503185503 | 13 | 1 | 12.9 | 22.5 | 0.00 | 0.00 | 0.00 | 33 | 1013.5 |
| 20260503185004 | 13 | 2 | 12.9 | 16.1 | 0.00 | 0.00 | 0.00 | 32 | 1013.5 |
| 20260503184504 | 13 | 1 | 14.5 | 16.1 | 0.00 | 0.00 | 0.00 | 33 | 1013.5 |
| 20260503184003 | 13 | 1 | 12.9 | 16.1 | 0.00 | 0.00 | 0.00 | 33 | 1013.7 |
| 20260503183503 | 13 | 1 | 14.5 | 33.8 | 0.00 | 0.00 | 0.00 | 34 | 1013.6 |
| 20260503183004 | 13 | 1 | 14.5 | 33.8 | 0.00 | 0.00 | 0.00 | 32 | 1013.6 |